| time (UTC) | temp F | wind direction | speed MPH | gust MPH | rain 1hr in | rain 24hr in | rain mn in | humidity % | barometer mb |
| 20260901012016 | 77 | 143 | 0.0 | 1.0 | 0.00 | 0.00 | 0.00 | 41 | 1020.8 |
| 20260901010903 | 77 | 136 | 1.0 | 2.0 | 0.00 | 0.00 | 0.00 | 40 | 1020.8 |
| 20260901010219 | 78 | 124 | 1.0 | 3.0 | 0.00 | 0.00 | 0.00 | 39 | 1020.7 |
| 20260901005403 | 78 | 136 | 1.0 | 4.0 | 0.00 | 0.00 | 0.00 | 39 | 1020.8 |
| 20260901004718 | 78 | 108 | 1.0 | 4.0 | 0.00 | 0.00 | 0.00 | 38 | 1020.8 |
| 20260901003603 | 78 | 0 | 0.0 | 0.0 | 0.00 | 0.00 | 0.00 | 38 | 1020.9 |
| 20260901002703 | 79 | 168 | 0.0 | 3.0 | 0.00 | 0.00 | 0.00 | 38 | 1020.9 |
| 20260901001803 | 79 | 117 | 1.0 | 4.0 | 0.00 | 0.00 | 0.00 | 38 | 1020.9 |
| 20260901000903 | 80 | 103 | 2.0 | 6.0 | 0.00 | 0.00 | 0.00 | 37 | 1020.8 |
| 20260901000003 | 80 | 102 | 2.0 | 9.0 | 0.00 | 0.00 | 0.00 | 36 | 1020.7 |
| 20260831235618 | 80 | 106 | 2.0 | 9.0 | 0.00 | 0.00 | 0.00 | 36 | 1020.7 |
| 20260831234503 | 81 | 96 | 2.0 | 4.0 | 0.00 | 0.00 | 0.00 | 34 | 1020.9 |
| 20260831233603 | 82 | 105 | 1.0 | 5.0 | 0.00 | 0.00 | 0.00 | 33 | 1020.9 |
| 20260831232703 | 82 | 114 | 1.0 | 5.0 | 0.00 | 0.00 | 0.00 | 32 | 1021.0 |
| 20260831231803 | 82 | 121 | 1.0 | 6.0 | 0.00 | 0.00 | 0.00 | 33 | 1021.1 |
| 20260831230903 | 82 | 127 | 2.0 | 7.0 | 0.00 | 0.00 | 0.00 | 33 | 1021.2 |
| 20260831230003 | 82 | 121 | 1.0 | 3.0 | 0.00 | 0.00 | 0.00 | 33 | 1021.3 |
| 20260831225403 | 82 | 114 | 1.0 | 8.0 | 0.00 | 0.00 | 0.00 | 34 | 1021.3 |
| 20260831224503 | 83 | 113 | 1.0 | 6.0 | 0.00 | 0.00 | 0.00 | 33 | 1021.3 |
| 20260831223603 | 83 | 121 | 1.0 | 4.0 | 0.00 | 0.00 | 0.00 | 32 | 1021.5 |
| 20260831222703 | 84 | 149 | 1.0 | 4.0 | 0.00 | 0.00 | 0.00 | 31 | 1021.4 |
| 20260831221803 | 84 | 143 | 1.0 | 4.0 | 0.00 | 0.00 | 0.00 | 31 | 1021.2 |
| 20260831220903 | 85 | 156 | 2.0 | 6.0 | 0.00 | 0.00 | 0.00 | 31 | 1021.7 |
| 20260831220003 | 85 | 124 | 1.0 | 4.0 | 0.00 | 0.00 | 0.00 | 31 | 1021.8 |
| 20260831215617 | 85 | 152 | 1.0 | 5.0 | 0.00 | 0.00 | 0.00 | 31 | 1021.6 |
| 20260831214717 | 85 | 117 | 1.0 | 5.0 | 0.00 | 0.00 | 0.00 | 31 | 1021.7 |
| 20260831213603 | 85 | 112 | 2.0 | 7.0 | 0.00 | 0.00 | 0.00 | 31 | 1021.8 |
| 20260831212703 | 85 | 119 | 2.0 | 7.0 | 0.00 | 0.00 | 0.00 | 31 | 1022.0 |
| 20260831211803 | 86 | 123 | 1.0 | 5.0 | 0.00 | 0.00 | 0.00 | 30 | 1021.9 |
| 20260831210903 | 86 | 129 | 1.0 | 4.0 | 0.00 | 0.00 | 0.00 | 33 | 1022.0 |
| 20260831210003 | 86 | 104 | 1.0 | 4.0 | 0.00 | 0.00 | 0.00 | 31 | 1022.0 |
| 20260831205403 | 86 | 117 | 1.0 | 3.0 | 0.00 | 0.00 | 0.00 | 31 | 1022.2 |
| 20260831204503 | 86 | 198 | 1.0 | 7.0 | 0.00 | 0.00 | 0.00 | 29 | 1022.1 |
| 20260831203603 | 86 | 140 | 1.0 | 5.0 | 0.00 | 0.00 | 0.00 | 32 | 1022.2 |
| 20260831202703 | 85 | 220 | 1.0 | 3.0 | 0.00 | 0.00 | 0.00 | 31 | 1022.3 |
| 20260831201803 | 85 | 244 | 1.0 | 3.0 | 0.00 | 0.00 | 0.00 | 31 | 1022.5 |
| 20260831200903 | 85 | 249 | 1.0 | 3.0 | 0.00 | 0.00 | 0.00 | 34 | 1022.4 |
| 20260831200003 | 85 | 191 | 1.0 | 3.0 | 0.00 | 0.00 | 0.00 | 37 | 1022.6 |
| 20260831195403 | 84 | 211 | 1.0 | 3.0 | 0.00 | 0.00 | 0.00 | 33 | 1022.6 |
| 20260831194503 | 84 | 228 | 1.0 | 3.0 | 0.00 | 0.00 | 0.00 | 34 | 1022.7 |
| 20260831193603 | 84 | 240 | 1.0 | 4.0 | 0.00 | 0.00 | 0.00 | 32 | 1022.7 |
| 20260831192703 | 83 | 311 | 0.0 | 2.0 | 0.00 | 0.00 | 0.00 | 33 | 1022.7 |
| 20260831191803 | 83 | 304 | 1.0 | 2.0 | 0.00 | 0.00 | 0.00 | 36 | 1022.8 |
| 20260831190903 | 83 | 38 | 1.0 | 3.0 | 0.00 | 0.00 | 0.00 | 36 | 1023.0 |
| 20260831190003 | 82 | 111 | 0.0 | 2.0 | 0.00 | 0.00 | 0.00 | 36 | 1023.0 |
| 20260831185403 | 81 | 140 | 0.0 | 1.0 | 0.00 | 0.00 | 0.00 | 35 | 1023.2 |
| 20260831184503 | 80 | 140 | 0.0 | 2.0 | 0.00 | 0.00 | 0.00 | 36 | 1023.3 |
| 20260831183603 | 80 | 140 | 0.0 | 1.0 | 0.00 | 0.00 | 0.00 | 39 | 1023.3 |
| 20260831182918 | 80 | 140 | 0.0 | 2.0 | 0.00 | 0.00 | 0.00 | 40 | 1023.5 |
| 20260831181803 | 80 | 116 | 1.0 | 3.0 | 0.00 | 0.00 | 0.00 | 40 | 1023.7 |
| 20260831180903 | 79 | 236 | 0.0 | 2.0 | 0.00 | 0.00 | 0.00 | 42 | 1023.9 |
| 20260831180003 | 78 | 286 | 0.0 | 4.0 | 0.00 | 0.00 | 0.00 | 42 | 1023.9 |
| 20260831175403 | 78 | 295 | 1.0 | 4.0 | 0.00 | 0.00 | 0.00 | 43 | 1023.8 |
| 20260831174503 | 77 | 0 | 0.0 | 0.0 | 0.00 | 0.00 | 0.00 | 45 | 1024.0 |
| 20260831173818 | 76 | 31 | 0.0 | 2.0 | 0.00 | 0.00 | 0.00 | 47 | 1024.0 |
| 20260831172703 | 75 | 38 | 0.0 | 2.0 | 0.00 | 0.00 | 0.00 | 48 | 1024.2 |
| 20260831171803 | 74 | 295 | 0.0 | 2.0 | 0.00 | 0.00 | 0.00 | 51 | 1024.3 |
| 20260831171117 | 73 | 289 | 1.0 | 3.0 | 0.00 | 0.00 | 0.00 | 52 | 1024.2 |
| 20260831170003 | 72 | 290 | 2.0 | 8.0 | 0.00 | 0.00 | 0.00 | 54 | 1024.3 |
| 20260831165403 | 72 | 292 | 2.0 | 8.0 | 0.00 | 0.00 | 0.00 | 54 | 1024.2 |
| 20260831164719 | 72 | 292 | 2.0 | 7.0 | 0.00 | 0.00 | 0.00 | 57 | 1024.2 |
| 20260831163603 | 72 | 282 | 1.0 | 3.0 | 0.00 | 0.00 | 0.00 | 57 | 1024.1 |
| 20260831162703 | 71 | 292 | 2.0 | 4.0 | 0.00 | 0.00 | 0.00 | 57 | 1024.2 |
| 20260831161803 | 70 | 296 | 1.0 | 4.0 | 0.00 | 0.00 | 0.00 | 58 | 1024.3 |
| 20260831160903 | 69 | 283 | 0.0 | 2.0 | 0.00 | 0.00 | 0.00 | 60 | 1024.3 |
| 20260831160003 | 69 | 283 | 0.0 | 2.0 | 0.00 | 0.00 | 0.00 | 62 | 1024.2 |
| 20260831155619 | 68 | 288 | 0.0 | 3.0 | 0.00 | 0.00 | 0.00 | 64 | 1024.1 |
| 20260831154503 | 67 | 286 | 2.0 | 3.0 | 0.00 | 0.00 | 0.00 | 65 | 1024.0 |
| 20260831153818 | 67 | 286 | 2.0 | 4.0 | 0.00 | 0.00 | 0.00 | 66 | 1024.0 |
| 20260831152703 | 66 | 290 | 1.0 | 4.0 | 0.00 | 0.00 | 0.00 | 66 | 1024.2 |
| 20260831152017 | 66 | 291 | 1.0 | 3.0 | 0.00 | 0.00 | 0.00 | 66 | 1024.1 |
| 20260831150903 | 65 | 291 | 1.0 | 2.0 | 0.00 | 0.00 | 0.00 | 68 | 1024.1 |
| 20260831150003 | 64 | 291 | 1.0 | 3.0 | 0.00 | 0.00 | 0.00 | 70 | 1024.3 |
| 20260831145403 | 64 | 291 | 0.0 | 2.0 | 0.00 | 0.00 | 0.00 | 70 | 1024.3 |
| 20260831144503 | 63 | 0 | 0.0 | 0.0 | 0.00 | 0.00 | 0.00 | 73 | 1024.3 |
| 20260831143603 | 63 | 291 | 0.0 | 1.0 | 0.00 | 0.00 | 0.00 | 74 | 1024.2 |
| 20260831142703 | 62 | 290 | 0.0 | 3.0 | 0.00 | 0.00 | 0.00 | 75 | 1024.0 |
| 20260831141803 | 61 | 288 | 0.0 | 3.0 | 0.00 | 0.00 | 0.00 | 77 | 1024.1 |
| 20260831140903 | 60 | 284 | 1.0 | 6.0 | 0.00 | 0.00 | 0.00 | 77 | 1024.0 |
| 20260831140003 | 60 | 285 | 2.0 | 4.0 | 0.00 | 0.00 | 0.00 | 78 | 1023.9 |
| 20260831135403 | 59 | 287 | 1.0 | 4.0 | 0.00 | 0.00 | 0.00 | 80 | 1023.9 |
| 20260831134503 | 59 | 291 | 2.0 | 6.0 | 0.00 | 0.00 | 0.00 | 80 | 1023.8 |
| 20260831133603 | 58 | 293 | 0.0 | 3.0 | 0.00 | 0.00 | 0.00 | 80 | 1023.9 |
| 20260831132703 | 58 | 300 | 0.0 | 2.0 | 0.00 | 0.00 | 0.00 | 80 | 1023.9 |
| 20260831131803 | 58 | 300 | 0.0 | 1.0 | 0.00 | 0.00 | 0.00 | 79 | 1023.8 |
| 20260831130903 | 58 | 300 | 0.0 | 2.0 | 0.00 | 0.00 | 0.00 | 79 | 1023.7 |
| 20260831130003 | 58 | 300 | 0.0 | 2.0 | 0.00 | 0.00 | 0.00 | 78 | 1023.5 |
| 20260831125618 | 58 | 0 | 0.0 | 0.0 | 0.00 | 0.00 | 0.00 | 78 | 1023.5 |
| 20260831124503 | 58 | 0 | 0.0 | 0.0 | 0.00 | 0.00 | 0.00 | 78 | 1023.3 |
| 20260831123603 | 57 | 0 | 0.0 | 0.0 | 0.00 | 0.00 | 0.00 | 78 | 1023.4 |
| 20260831122703 | 58 | 0 | 0.0 | 0.0 | 0.00 | 0.00 | 0.00 | 78 | 1023.3 |
| 20260831122019 | 58 | 0 | 0.0 | 0.0 | 0.00 | 0.00 | 0.00 | 78 | 1023.2 |
| 20260831121119 | 58 | 0 | 0.0 | 0.0 | 0.00 | 0.00 | 0.00 | 78 | 1023.1 |
| 20260831120003 | 58 | 0 | 0.0 | 0.0 | 0.00 | 0.00 | 0.00 | 77 | 1022.8 |
| 20260831115403 | 58 | 0 | 0.0 | 0.0 | 0.00 | 0.00 | 0.00 | 77 | 1022.8 |
| 20260831114503 | 58 | 0 | 0.0 | 1.0 | 0.00 | 0.00 | 0.00 | 77 | 1022.8 |
| 20260831113603 | 59 | 82 | 0.0 | 2.0 | 0.00 | 0.00 | 0.00 | 77 | 1022.5 |
| 20260831112915 | 59 | 0 | 0.0 | 0.0 | 0.00 | 0.00 | 0.00 | 77 | 1022.5 |
| 20260831111803 | 59 | 0 | 0.0 | 0.0 | 0.00 | 0.00 | 0.00 | 78 | 1022.6 |
| 20260831110903 | 60 | 78 | 1.0 | 3.0 | 0.00 | 0.00 | 0.00 | 79 | 1022.3 |
| 20260831110003 | 60 | 287 | 1.0 | 3.0 | 0.00 | 0.00 | 0.00 | 79 | 1022.4 |
| 20260831105403 | 60 | 281 | 1.0 | 3.0 | 0.00 | 0.00 | 0.00 | 79 | 1022.2 |
| 20260831104503 | 59 | 0 | 0.0 | 0.0 | 0.00 | 0.00 | 0.00 | 79 | 1022.2 |
| 20260831103603 | 60 | 0 | 0.0 | 0.0 | 0.00 | 0.00 | 0.00 | 79 | 1022.3 |
| 20260831102919 | 60 | 0 | 0.0 | 0.0 | 0.00 | 0.00 | 0.00 | 79 | 1022.4 |
| 20260831101803 | 60 | 0 | 0.0 | 0.0 | 0.00 | 0.00 | 0.00 | 79 | 1022.3 |
| 20260831101118 | 60 | 0 | 0.0 | 0.0 | 0.00 | 0.00 | 0.00 | 78 | 1022.1 |
| 20260831100003 | 60 | 0 | 0.0 | 0.0 | 0.00 | 0.00 | 0.00 | 78 | 1022.3 |
| 20260831095403 | 60 | 0 | 0.0 | 0.0 | 0.00 | 0.00 | 0.00 | 77 | 1022.0 |
| 20260831094716 | 60 | 0 | 0.0 | 0.0 | 0.00 | 0.00 | 0.00 | 75 | 1022.0 |
| 20260831093816 | 61 | 0 | 0.0 | 0.0 | 0.00 | 0.00 | 0.00 | 74 | 1022.0 |
| 20260831092703 | 61 | 0 | 0.0 | 0.0 | 0.00 | 0.00 | 0.00 | 73 | 1021.8 |
| 20260831092018 | 61 | 294 | 0.0 | 1.0 | 0.00 | 0.00 | 0.00 | 72 | 1021.8 |
| 20260831090903 | 62 | 0 | 0.0 | 0.0 | 0.00 | 0.00 | 0.00 | 72 | 1021.9 |
| 20260831090003 | 62 | 0 | 0.0 | 1.0 | 0.00 | 0.00 | 0.00 | 71 | 1021.7 |
| 20260831085403 | 62 | 294 | 0.0 | 2.0 | 0.00 | 0.00 | 0.00 | 70 | 1021.6 |
| 20260831084503 | 63 | 294 | 0.0 | 2.0 | 0.00 | 0.00 | 0.00 | 69 | 1021.5 |
| 20260831083603 | 63 | 0 | 0.0 | 0.0 | 0.00 | 0.00 | 0.00 | 69 | 1021.5 |
| 20260831082703 | 64 | 0 | 0.0 | 0.0 | 0.00 | 0.00 | 0.00 | 68 | 1021.6 |
| 20260831082018 | 64 | 0 | 0.0 | 0.0 | 0.00 | 0.00 | 0.00 | 68 | 1021.6 |
| 20260831080903 | 64 | 294 | 0.0 | 1.0 | 0.00 | 0.00 | 0.00 | 67 | 1021.7 |
| 20260831080003 | 64 | 294 | 0.0 | 2.0 | 0.00 | 0.00 | 0.00 | 66 | 1021.7 |
| 20260831075403 | 64 | 289 | 1.0 | 4.0 | 0.00 | 0.00 | 0.00 | 66 | 1021.8 |
| 20260831074720 | 65 | 150 | 1.0 | 4.0 | 0.00 | 0.00 | 0.00 | 65 | 1022.0 |
| 20260831073603 | 64 | 117 | 1.0 | 4.0 | 0.00 | 0.00 | 0.00 | 65 | 1021.8 |
| 20260831072703 | 64 | 140 | 0.0 | 3.0 | 0.00 | 0.00 | 0.00 | 65 | 1022.4 |
| 20260831071803 | 64 | 136 | 1.0 | 4.0 | 0.00 | 0.00 | 0.00 | 65 | 1022.6 |
| 20260831071117 | 64 | 116 | 2.0 | 4.0 | 0.00 | 0.00 | 0.00 | 67 | 1022.3 |
| 20260831070003 | 64 | 96 | 1.0 | 3.0 | 0.00 | 0.00 | 0.00 | 70 | 1022.6 |
| 20260831065403 | 64 | 63 | 0.0 | 1.0 | 0.00 | 0.00 | 0.00 | 71 | 1022.7 |
| 20260831064719 | 64 | 0 | 0.0 | 0.0 | 0.00 | 0.00 | 0.00 | 71 | 1022.8 |
| 20260831063603 | 64 | 0 | 0.0 | 0.0 | 0.00 | 0.00 | 0.00 | 71 | 1023.3 |
| 20260831062703 | 64 | 0 | 0.0 | 1.0 | 0.00 | 0.00 | 0.00 | 70 | 1023.3 |
| 20260831061803 | 64 | 0 | 0.0 | 0.0 | 0.00 | 0.00 | 0.00 | 71 | 1023.3 |
| 20260831060903 | 64 | 63 | 0.0 | 1.0 | 0.00 | 0.00 | 0.00 | 72 | 1023.5 |
| 20260831060004 | 64 | 63 | 0.0 | 2.0 | 0.00 | 0.00 | 0.00 | 71 | 1023.3 |
| 20260831055403 | 64 | 63 | 0.0 | 2.0 | 0.00 | 0.00 | 0.00 | 71 | 1023.2 |
| 20260831054503 | 65 | 65 | 1.0 | 2.0 | 0.00 | 0.00 | 0.00 | 70 | 1023.7 |
| 20260831053603 | 65 | 55 | 0.0 | 1.0 | 0.00 | 0.00 | 0.00 | 70 | 1024.2 |
| 20260831052703 | 66 | 281 | 0.0 | 3.0 | 0.00 | 0.00 | 0.00 | 68 | 1024.7 |
| 20260831051803 | 66 | 281 | 1.0 | 2.0 | 0.00 | 0.00 | 0.00 | 66 | 1024.8 |
| 20260831050903 | 66 | 281 | 0.0 | 2.0 | 0.00 | 0.00 | 0.00 | 66 | 1024.9 |
| 20260831050003 | 66 | 281 | 0.0 | 2.0 | 0.00 | 0.00 | 0.00 | 65 | 1024.5 |
| 20260831045403 | 66 | 0 | 0.0 | 0.0 | 0.00 | 0.00 | 0.00 | 64 | 1024.5 |
| 20260831044503 | 66 | 281 | 0.0 | 2.0 | 0.00 | 0.00 | 0.00 | 64 | 1024.2 |
| 20260831043603 | 66 | 296 | 1.0 | 3.0 | 0.00 | 0.00 | 0.00 | 64 | 1024.3 |
| 20260831042703 | 67 | 97 | 0.0 | 2.0 | 0.00 | 0.00 | 0.00 | 66 | 1024.1 |
| 20260831041803 | 67 | 98 | 1.0 | 3.0 | 0.00 | 0.00 | 0.00 | 65 | 1024.1 |
| 20260831040903 | 68 | 223 | 1.0 | 2.0 | 0.00 | 0.00 | 0.00 | 63 | 1024.0 |
| 20260831040003 | 68 | 276 | 0.0 | 1.0 | 0.00 | 0.00 | 0.00 | 61 | 1024.1 |
| 20260831035403 | 68 | 0 | 0.0 | 1.0 | 0.00 | 0.00 | 0.00 | 59 | 1023.4 |
| 20260831034503 | 68 | 0 | 0.0 | 0.0 | 0.00 | 0.00 | 0.00 | 58 | 1023.1 |
| 20260831033603 | 68 | 0 | 0.0 | 0.0 | 0.00 | 0.00 | 0.00 | 57 | 1022.7 |
| 20260831032703 | 68 | 276 | 0.0 | 2.0 | 0.00 | 0.00 | 0.00 | 56 | 1022.7 |
| 20260831031803 | 68 | 290 | 1.0 | 3.0 | 0.00 | 0.00 | 0.00 | 58 | 1022.5 |
| 20260831030903 | 68 | 308 | 0.0 | 3.0 | 0.00 | 0.00 | 0.00 | 60 | 1022.3 |
| 20260831030003 | 68 | 308 | 0.0 | 1.0 | 0.00 | 0.00 | 0.00 | 61 | 1022.0 |
| 20260831025403 | 68 | 308 | 0.0 | 1.0 | 0.00 | 0.00 | 0.00 | 61 | 1021.9 |
| 20260831024503 | 68 | 308 | 0.0 | 2.0 | 0.00 | 0.00 | 0.00 | 60 | 1021.8 |
| 20260831023603 | 68 | 299 | 1.0 | 3.0 | 0.00 | 0.00 | 0.00 | 60 | 1021.6 |
| 20260831022703 | 69 | 297 | 2.0 | 6.0 | 0.00 | 0.00 | 0.00 | 59 | 1021.6 |
| 20260831021803 | 69 | 300 | 1.0 | 4.0 | 0.00 | 0.00 | 0.00 | 58 | 1021.4 |
| 20260831021119 | 70 | 300 | 1.0 | 2.0 | 0.00 | 0.00 | 0.00 | 57 | 1021.4 |
| 20260831020003 | 70 | 299 | 1.0 | 4.0 | 0.00 | 0.00 | 0.00 | 55 | 1021.4 |
| 20260831015618 | 70 | 297 | 2.0 | 4.0 | 0.00 | 0.00 | 0.00 | 55 | 1021.3 |
| 20260831014503 | 70 | 290 | 2.0 | 7.0 | 0.00 | 0.00 | 0.00 | 54 | 1021.2 |
| 20260831013603 | 71 | 292 | 1.0 | 4.0 | 0.00 | 0.00 | 0.00 | 54 | 1021.1 |
| 20260831012703 | 71 | 287 | 0.0 | 1.0 | 0.00 | 0.00 | 0.00 | 54 | 1021.1 |